This is the latest recevied weather packets stored in our database for station/object VK6HGR-1. If no packets are shown the sender has not sent any weather packets the latest 10 day(s).
| Time | Temp. | Humidity | Pressure | Rain* | Wind** | Luminosity | Snow |
|---|---|---|---|---|---|---|---|
| 1777894211 | 17.78° C | 66% | 1023.5 hPa | - | - | - | - |
| 1777893312 | 18.33° C | 65% | 1023.5 hPa | - | - | - | - |
| 1777892412 | 18.33° C | 65% | 1023.4 hPa | - | - | - | - |
| 1777891511 | 18.33° C | 64% | 1023.3 hPa | - | - | - | - |
| 1777890613 | 18.89° C | 63% | 1023 hPa | - | - | - | - |
| 1777889710 | 19.44° C | 62% | 1022.8 hPa | - | - | - | - |
| 1777888813 | 19.44° C | 62% | 1022.5 hPa | - | - | - | - |
| 1777887912 | 20° C | 60% | 1022.3 hPa | - | - | - | - |
| 1777887011 | 20.56° C | 59% | 1022.1 hPa | - | - | - | - |
| 1777886111 | 20.56° C | 58% | 1022 hPa | - | - | - | - |
| 1777885211 | 21.11° C | 57% | 1022 hPa | - | - | - | - |
| 1777884310 | 21.67° C | 55% | 1022 hPa | - | - | - | - |
| 1777883411 | 22.22° C | 54% | 1022 hPa | - | - | - | - |
| 1777882511 | 22.78° C | 52% | 1021.9 hPa | - | - | - | - |
| 1777881611 | 22.78° C | 47% | 1022.1 hPa | - | - | - | - |
| 1777880714 | 22.78° C | 47% | 1022.1 hPa | - | - | - | - |
| 1777879810 | 23.33° C | 47% | 1022 hPa | - | - | - | - |
| 1777878910 | 23.33° C | 47% | 1022.1 hPa | - | - | - | - |
| 1777878011 | 23.33° C | 46% | 1022.2 hPa | - | - | - | - |
| 1777877112 | 23.33° C | 46% | 1022.2 hPa | - | - | - | - |
| 1777876212 | 22.78° C | 46% | 1022.2 hPa | - | - | - | - |
| 1777875312 | 22.78° C | 47% | 1022.2 hPa | - | - | - | - |
| 1777874411 | 22.78° C | 46% | 1022.3 hPa | - | - | - | - |
| 1777873514 | 22.78° C | 47% | 1022.4 hPa | - | - | - | - |
| 1777872611 | 22.78° C | 47% | 1022.7 hPa | - | - | - | - |
* Rain since midnight (hover to see other rain measurements)
** Current wind speed in m/s (hover to see current wind gust speed)